星链-31568 (STARLINK-31568 )

导读

STARLINK-31568是美国SpaceX公司星链计划中的一颗卫星,于2024年4月5日发射。作为低轨互联网星座的组成部分,它旨在为全球提供高速互联网接入服务,尤其覆盖偏远地区。星链星座通过大量卫星组网,持续扩展规模,这颗卫星的入轨进一步完善了星座的全球覆盖能力,推进了SpaceX的太空互联网布局。

Basic Information
目录编号:
59412
目录名称:
STARLINK-31568
国际标识:
2024-064Q
轨道中心:
EARTH
卫星名称:
星链-31568
卫星全名:
星链-31568 (STARLINK-31568 )
卫星状态:
在轨 (已飞行883 天)
发射日期:
2024-04-05 UTC
国别 :
美国 (US)
星等 :
--
Orbit Information
数据来源 国际轨道数据
星历时间: 2026-09-04T23:35:54+0800
10小时前
查看轨道信息
半长轴: 6861.195km
偏心率: 0.0001019
轨道倾角: 43.004°
近地点辐角 258.685°
升交点赤经 125.653°
平近点角 101.388°
近地点: 482.358km
远地点: 483.758km
周期: 94.267分钟
每日圈数: 15.275772
Detailed Information
固有亮度:
5
最大亮度:
0.3
卫星平台:
Starlink v2.0 mini
覆盖范围:
全球
运营商:
太空探索技术公司
运营商所在国:
美国
制造商(研发单位):
太空探索技术公司
制造商所在国:
美国
使用方式:
暂无
Satellite Introduction
星链(Starlink)计划是由太空探索技术公司(SpaceX)提出的一个巨型低轨卫星互联网星座项目,计划在2019年至2024年间在太空搭建由约1.2万颗卫星组成的“星链”网络,其中1584颗将部署在地球上空550千米处的近地轨道,并从2020年开始工作。该卫星仍在工作。
2D Orbit Map
3D Orbit Map
Orbit Altitude Analysis Chart
Orbit Inclination Analysis Chart
Orbit Comprehensive Analysis Chart
View Comprehensive Chart
Conjunction Data List
Event ID Objects TCA Miss Dist (km) Collision Risk Probability Collision Risk Index (CRI) Action
CDM_260829-014005-941206-758622
2026-08-29T
01:40:12+0000
1.037 km
极远距离
2.280379E-5 中风险 0.62
CDM_260906-050205-941206-273921
2026-09-06T
05:02:32+0000
1.202 km
极远距离
9.142629E-6 低风险 0.54
CDM_260907-003905-941206-273921
2026-09-07T
00:39:28+0000
1.418 km
极远距离
5.233877E-6 低风险 0.49
CDM_260907-021305-941206-273921
2026-09-07T
02:13:37+0000
1.660 km
极远距离
3.19449E-6 低风险 0.45
CDM_260906-063605-941206-273922
2026-09-06T
06:36:41+0000
2.169 km
极远距离
1.591482E-6 低风险 0.39
CDM_260906-032805-941206-273921
2026-09-06T
03:28:23+0000
2.339 km
极远距离
1.363133E-6 低风险 0.38
CDM_260907-035305-941206-431221
2026-09-07T
03:53:03+0000
2.651 km
极远距离
7.502205E-7 极低风险 0.33